User: anonymous   Login
Location: Theydon Bois
(51.6750°N, 0.1050°E)
Time: 22:16:08
(UTC+00:00)
Language:

Cosmos-2242 - Orbit

View from above orbital plane
View from above orbital plane
View from above satellite
View from above satellite

Ground track
Ground track

The orbit data is extracted from the following two-line orbital elements,

1 22626U 93024A   18048.83095113 +.00000195 +00000-0 +18596-4 0  9995
2 22626 082.5242 170.2250 0019578 029.8028 330.4299 14.87769932342677
Epoch (UTC): 17 February 2018 19:56:34
Eccentricity: 0.0019578
inclination: 82.5242°
perigee height: 591 km
apogee height: 618 km
right ascension of ascending node: 170.2250°
argument of perigee: 29.8028°
revolutions per day: 14.87769932
mean anomaly at epoch: 330.4299°
orbit number at epoch: 34267

The dashed part of the orbit path shows where the satellite is in the earth's shadow,  

DLR